Location: Bangkok
(13.7500°N, 100.5170°E)
Time: 13:10:23
(UTC+07:00)

Hubble Space Telescope - Visible Passes

Search period start: 20 November 2017 00:00
Search period end: 30 November 2017 00:00
Orbit: 537 x 541 km, 28.5° (Epoch: 19 November)

Date Brightness Start Highest point End Pass type
(mag) Time Alt. Az. Time Alt. Az. Time Alt. Az.
20 Nov 3.1 05:02:25 12° N 05:02:25 12° N 05:03:42 10° NNE visible
21 Nov 3.3 04:52:56 10° N 04:52:56 10° N 04:53:11 10° N visible
25 Nov 2.7 05:51:03 10° NNW 05:54:00 19° NNE 05:56:57 10° ENE visible
26 Nov 2.5 05:40:38 10° NW 05:43:54 23° NNE 05:47:11 10° ENE visible
27 Nov 2.2 05:30:56 14° NNW 05:33:47 28° NNE 05:37:21 10° E visible
28 Nov 1.8 05:21:23 20° NNW 05:23:38 35° NNE 05:27:27 10° E visible
29 Nov 1.4 05:11:52 30° NNW 05:13:29 47° NNE 05:17:27 10° E visible
